Date String (YYYY-MM-DD hh:mm:ss) UTC,Instrument flags,Ambient pressure (hPa),Sample flow (lpm),Bypass flow (lpm),Sample temperature (°C),Ambient temperature (°C),ASC tube jacket temperature (°C),LED temperature (°C),Box temperature (°C),Sample RH (%),Span deviation,Mass concentration (μg/m³),Mass concentration (μg/m³),Mass concentration (μg/m³)
DateTimeUTC,F1_M11,P_M11,Q1_M11,Q2_M11,T1_M11,T2_M11,T3_M11,T4_M11,T5_M11,U1_M11,ZSPAN_M11,X0_M11,X2_M11,X1_M11
2023-05-06 07:00:00,,0825.9,5.01,0.00,29.3,27.7,00.0,37.8,30.8,10.8,0000.0,0008.69,0003.88,0002.43
2023-05-06 07:01:00,,0825.9,5.01,0.00,29.3,27.7,00.0,37.8,30.8,10.5,0000.0,0008.77,0003.88,0002.41
2023-05-06 07:02:00,,0825.9,4.98,0.00,29.3,27.7,00.0,37.8,30.8,10.2,0000.0,0008.71,0003.83,0002.37
2023-05-06 07:03:00,,0825.9,5.01,0.00,29.4,27.8,00.0,37.8,30.7,10.1,0000.0,0008.74,0003.80,0002.33
2023-05-06 07:04:00,,0825.9,5.01,0.00,29.4,27.8,00.0,37.8,30.7,10.1,0000.0,0009.21,0003.75,0002.28
2023-05-06 07:05:00,,0825.9,5.00,0.00,29.4,27.8,00.0,37.8,30.7,10.1,0000.0,0009.06,0003.68,0002.23
2023-05-06 07:06:00,,0825.9,4.98,0.00,29.4,27.8,00.0,37.8,30.7,10.1,0000.0,0008.71,0003.62,0002.17
2023-05-06 07:07:00,,0825.9,5.01,0.00,29.4,27.7,00.0,37.8,30.7,10.1,0000.0,0008.34,0003.59,0002.13
2023-05-06 07:08:00,,0825.9,5.01,0.00,29.4,27.7,00.0,37.8,30.7,10.0,0000.0,0008.33,0003.51,0002.11
2023-05-06 07:09:00,,0825.9,5.00,0.00,29.4,27.7,00.0,37.8,30.7,10.0,0000.0,0008.69,0003.46,0002.06
2023-05-06 07:10:00,,0825.9,4.99,0.00,29.4,27.7,00.0,37.8,30.8,10.1,0000.0,0009.54,0003.54,0002.03
2023-05-06 07:11:00,,0825.9,5.00,0.00,29.4,27.7,00.0,37.8,30.7,10.2,0000.0,0010.34,0003.58,0002.03
2023-05-06 07:12:00,,0825.9,5.00,0.00,29.4,27.7,00.0,37.8,30.7,10.0,0000.0,0010.13,0003.53,0002.02
2023-05-06 07:13:00,,0825.9,5.00,0.00,29.3,27.7,00.0,37.8,30.7,09.9,0000.0,0010.37,0003.55,0002.03
2023-05-06 07:14:00,,0825.9,5.01,0.00,29.3,27.7,00.0,37.8,30.7,09.8,0000.0,0010.46,0003.57,0002.03
2023-05-06 07:15:00,,0825.9,5.00,0.00,29.3,27.7,00.0,37.8,30.7,09.8,0000.0,0009.78,0003.57,0002.03
2023-05-06 07:16:00,,0825.9,4.99,0.00,29.3,27.7,00.0,37.8,30.7,09.8,0000.0,0009.73,0003.57,0002.03
2023-05-06 07:17:00,,0825.8,5.00,0.00,29.3,27.7,00.0,37.7,30.7,09.8,0000.0,0009.70,0003.56,0002.01
2023-05-06 07:18:00,,0825.8,5.00,0.00,29.3,27.7,00.0,37.7,30.7,09.8,0000.0,0009.69,0003.54,0002.02
2023-05-06 07:19:00,,0825.8,5.01,0.00,29.3,27.6,00.0,37.7,30.7,09.8,0000.0,0009.90,0003.56,0002.03
2023-05-06 07:20:00,,0825.8,5.00,0.00,29.3,27.6,00.0,37.7,30.7,09.8,0000.0,0009.54,0003.61,0002.05
2023-05-06 07:21:00,,0825.8,5.00,0.00,29.3,27.6,00.0,37.7,30.7,09.9,0000.0,0009.68,0003.52,0002.02
2023-05-06 07:22:00,,0825.8,4.99,0.00,29.3,27.6,00.0,37.7,30.6,09.9,0000.0,0008.80,0003.45,0002.01
2023-05-06 07:23:00,,0825.8,5.00,0.00,29.3,27.6,00.0,37.7,30.6,10.1,0000.0,0008.90,0003.43,0001.99
2023-05-06 07:24:00,,0825.8,5.01,0.00,29.3,27.6,00.0,37.7,30.6,10.1,0000.0,0008.82,0003.44,0002.00
2023-05-06 07:25:00,,0825.7,4.99,0.00,29.3,27.5,00.0,37.7,30.5,09.9,0000.0,0009.18,0003.44,0002.01
2023-05-06 07:26:00,,0825.6,5.00,0.00,29.3,27.5,00.0,37.7,30.6,10.0,0000.0,0009.24,0003.40,0002.01
2023-05-06 07:27:00,,0825.6,5.01,0.00,29.3,27.5,00.0,37.7,30.6,10.1,0000.0,0009.23,0003.38,0002.03
2023-05-06 07:28:00,,0825.6,4.99,0.00,29.3,27.4,00.0,37.7,30.6,10.1,0000.0,0009.21,0003.37,0002.04
2023-05-06 07:29:00,,0825.6,4.99,0.00,29.3,27.4,00.0,37.7,30.6,10.2,0000.0,0009.33,0003.40,0002.05
2023-05-06 07:30:00,,0825.7,5.00,0.00,29.3,27.4,00.0,37.7,30.5,10.0,0000.0,0009.12,0003.38,0002.04
2023-05-06 07:31:00,,0825.6,5.00,0.00,29.2,27.4,00.0,37.7,30.5,10.0,0000.0,0008.94,0003.34,0002.03
2023-05-06 07:32:00,,0825.6,5.01,0.00,29.2,27.4,00.0,37.7,30.5,09.9,0000.0,0008.42,0003.36,0002.04
2023-05-06 07:33:00,,0825.6,4.99,0.00,29.2,27.4,00.0,37.7,30.5,09.7,0000.0,0008.68,0003.37,0002.04
2023-05-06 07:34:00,,0825.5,5.00,0.00,29.2,27.3,00.0,37.6,30.5,09.5,0000.0,0008.33,0003.35,0002.03
2023-05-06 07:35:00,,0825.5,5.02,0.00,29.2,27.3,00.0,37.6,30.5,09.4,0000.0,0008.40,0003.36,0002.02
2023-05-06 07:36:00,,0825.5,4.99,0.00,29.2,27.3,00.0,37.6,30.5,09.3,0000.0,0007.92,0003.35,0002.01
2023-05-06 07:37:00,,0825.5,5.00,0.00,29.2,27.3,00.0,37.6,30.4,09.3,0000.0,0007.93,0003.38,0001.98
2023-05-06 07:38:00,,0825.5,5.00,0.00,29.2,27.3,00.0,37.6,30.4,09.4,0000.0,0007.90,0003.39,0001.98
2023-05-06 07:39:00,,0825.5,5.01,0.00,29.1,27.2,00.0,37.6,30.5,09.5,0000.0,0008.00,0003.40,0001.96
2023-05-06 07:40:00,,0825.5,5.01,0.00,29.1,27.2,00.0,37.6,30.4,09.6,0000.0,0008.60,0003.45,0001.96
2023-05-06 07:41:00,,0825.4,4.99,0.00,29.1,27.3,00.0,37.6,30.4,09.6,0000.0,0008.65,0003.47,0001.97
2023-05-06 07:42:00,,0825.5,5.00,0.00,29.1,27.2,00.0,37.6,30.4,09.6,0000.0,0008.93,0003.44,0001.96
2023-05-06 07:43:00,,0825.5,5.00,0.00,29.1,27.3,00.0,37.6,30.5,09.6,0000.0,0009.47,0003.45,0001.97
2023-05-06 07:44:00,,0825.5,5.01,0.00,29.1,27.3,00.0,37.6,30.4,09.6,0000.0,0009.17,0003.47,0001.97
2023-05-06 07:45:00,,0825.5,5.00,0.00,29.1,27.2,00.0,37.5,30.4,09.6,0000.0,0009.52,0003.49,0001.98
2023-05-06 07:46:00,,0825.5,5.00,0.00,29.1,27.2,00.0,37.5,30.4,09.6,0000.0,0009.31,0003.48,0001.97
2023-05-06 07:47:00,,0825.5,4.99,0.00,29.1,27.2,00.0,37.5,30.4,09.7,0000.0,0009.37,0003.46,0001.96
2023-05-06 07:48:00,,0825.5,5.00,0.00,29.1,27.2,00.0,37.5,30.3,09.8,0000.0,0009.20,0003.42,0001.98
2023-05-06 07:49:00,,0825.5,5.01,0.00,29.1,27.2,00.0,37.5,30.4,09.8,0000.0,0009.23,0003.42,0001.98
2023-05-06 07:50:00,,0825.5,5.00,0.00,29.0,27.2,00.0,37.5,30.4,09.9,0000.0,0009.20,0003.41,0001.99
2023-05-06 07:51:00,,0825.5,5.00,0.00,29.0,27.2,00.0,37.5,30.4,10.1,0000.0,0008.66,0003.36,0002.00
2023-05-06 07:52:00,,0825.5,5.02,0.00,29.0,27.3,00.0,37.5,30.4,10.2,0000.0,0008.45,0003.33,0002.00
2023-05-06 07:53:00,,0825.5,4.99,0.00,29.0,27.2,00.0,37.5,30.4,10.1,0000.0,0008.43,0003.38,0002.02
2023-05-06 07:54:00,,0825.4,5.00,0.00,29.0,27.2,00.0,37.5,30.4,09.9,0000.0,0007.81,0003.44,0002.02
2023-05-06 07:55:00,,0825.5,5.02,0.00,29.0,27.2,00.0,37.5,30.4,10.0,0000.0,0007.81,0003.46,0002.03
2023-05-06 07:56:00,,0825.4,4.99,0.00,29.0,27.2,00.0,37.5,30.3,10.1,0000.0,0007.62,0003.48,0002.04
2023-05-06 07:57:00,,0825.4,4.99,0.00,29.0,27.2,00.0,37.4,30.3,10.2,0000.0,0007.58,0003.49,0002.05
2023-05-06 07:58:00,,0825.4,5.01,0.00,29.0,27.2,00.0,37.4,30.3,10.3,0000.0,0007.83,0003.53,0002.08
2023-05-06 07:59:00,,0825.4,5.00,0.00,29.0,27.1,00.0,37.4,30.3,10.4,0000.0,0008.25,0003.54,0002.09
